Location: Sawyer Lake
(45.2517°N, 88.7550°W)
Time: 15:36:20
(UTC-05:00)

Daily predictions for brighter satellites

Satellite Brightness Start Highest point End
(mag) Time Altitude Azimuth Time Altitude Azimuth Time Altitude Azimuth
Helios 1A 4.1 19:47:46 10° ESE 19:51:16 27° ENE 19:54:48 10° N
Meteor 1-4 Rocket 2.4 19:49:44 10° S 19:53:11 67° E 19:56:40 10° NNE
FengYun 1-2 T 4.3 19:49:01 10° SSE 19:54:36 81° ENE 20:00:16 10° NNW
Cosmos 2098 Rocket 4.5 19:49:49 10° S 19:57:14 68° E 20:04:38 10° NNE
SeaSat 1 2.5 19:53:12 10° SE 19:58:07 74° ENE 20:03:04 10° NNW
Cosmos 1674 2.8 19:54:41 10° N 19:58:25 53° E 20:02:09 10° SSE
Envisat 4.0 19:55:25 10° ESE 19:59:38 27° ENE 20:03:51 10° N
Cosmos 1271 Rocket 3.3 19:57:41 10° SSE 20:01:25 38° E 20:05:11 10° NNE
ISS -3.8 19:58:53 10° SW 20:02:06 62° SE 20:05:20 10° ENE
Cosmos 1867 3.6 19:57:22 10° SW 20:02:50 89° NW 20:08:21 10° NE
Cosmos 1459 Rocket 4.4 19:57:39 10° SSE 20:03:24 41° E 20:09:07 10° NNE
Okean 3 Rocket 4.3 20:00:22 10° NNW 20:04:42 57° W 20:09:02 10° S
Cosmos 1447 Rocket 4.5 20:00:41 10° N 20:06:52 84° E 20:13:02 10° S
Cosmos 1544 3.8 20:06:51 10° SSW 20:10:28 59° W 20:14:07 10° N
Cosmos 2061 Rocket 4.4 20:04:37 10° SSE 20:10:37 44° E 20:16:41 10° NNE
Cosmos 1048 Rocket 4.4 20:06:34 10° NNW 20:11:39 64° WSW 20:16:42 10° S
Cosmos 1125 Rocket 3.7 20:06:30 10° SSW 20:11:42 77° WNW 20:16:58 10° NNE
Timation 2 Rocket 4.1 20:07:21 10° NNW 20:13:40 79° WSW 20:19:43 10° SSE
Cosmos 2173 Rocket 4.2 20:08:12 10° SSE 20:14:07 49° E 20:20:09 10° NNE
Cosmos-2242 3.0 20:11:05 10° S 20:15:15 58° E 20:19:27 10° NNE
Cosmos 1766 Rocket 3.7 20:15:51 10° N 20:20:21 84° W 20:24:50 10° S
Cosmos 1758 4.1 20:16:49 10° SSW 20:20:44 57° WNW 20:24:42 10° N
Cosmos 1953 3.1 20:21:30 10° SSW 20:25:29 56° W 20:29:30 10° N
OE (NEXTSAT) 4.5 20:23:49 10° W 20:27:25 77° N 20:29:49 20° E
Cosmos 2369 Rocket 3.2 20:24:49 10° SSE 20:29:08 23° ESE 20:33:26 10° NE
H-2A R/B 4.2 20:29:52 10° NE 20:30:03 10° NE 20:30:14 10° NE
Cosmos 2058 4.0 20:28:14 10° NNE 20:31:45 26° ENE 20:33:12 21° ESE
Lacrosse 5 3.6 20:28:16 10° W 20:32:46 31° NNW 20:37:16 10° NE
Cosmos 2221 4.1 20:33:22 17° E 20:33:22 17° E 20:36:08 10° NE
GP-B 3.1 20:32:14 10° S 20:36:40 87° W 20:41:09 10° N
Cosmos 1833 Rocket 3.8 20:32:00 10° NW 20:37:20 45° WSW 20:42:38 10° S
CZ-4B DEB 4.5 20:36:48 14° SSE 20:39:48 71° ENE 20:43:23 10° N
Meteor 1-29 3.2 20:37:27 10° NNE 20:40:51 46° E 20:44:13 10° S
CZ-2D R/B 3.9 20:37:14 10° S 20:41:03 56° W 20:44:54 10° NNW
SPOT 5 4.5 20:40:47 19° E 20:42:31 22° ENE 20:46:26 10° NNE
Cosmos 1939 Rocket 3.2 20:40:20 21° SE 20:42:53 49° ENE 20:46:55 10° N
Lacrosse 5 rocket 2.8 20:39:45 10° WNW 20:43:12 30° SW 20:46:14 11° S
CZ-3B DEB 3.6 20:36:05 10° W 20:44:38 41° NNW 20:48:50 10° NE
Cosmos 1943 Rocket 4.2 20:48:52 11° ENE 20:48:52 11° ENE 20:49:15 10° ENE
Cosmos 2016 Rocket 3.9 20:40:34 10° S 20:46:40 63° E 20:52:43 10° NNE
ALOS 4.4 20:43:07 10° SSW 20:47:06 28° W 20:51:07 10° NW
ATLAS 5 CENTAUR R/B 2.4 20:42:52 10° SW 20:47:34 60° NW 20:52:45 10° NNE
USA 186 2.2 20:47:36 19° SSW 20:48:52 38° W 20:50:59 10° NNW
Resurs 01 Rocket 3.1 20:45:23 10° SSW 20:49:30 37° W 20:53:38 10° NNW
Cosmos 1743 Rocket 3.6 20:46:42 10° N 20:51:11 83° W 20:55:38 10° S
Cosmos 1500 Rocket 3.4 20:47:05 10° N 20:51:24 73° E 20:54:28 19° SSE
Cosmos 1733 3.9 20:47:44 10° SSW 20:51:33 57° W 20:55:24 10° N
USA 215 4.0 20:48:23 12° ENE 20:53:21 28° SE 20:58:45 10° S
Helios 1B rocket 2.3 20:50:14 10° NNE 20:54:23 87° ESE 20:58:30 10° SSW
Cosmos 1725 Rocket 4.1 20:51:52 10° SSE 20:57:52 54° E 21:03:52 10° NNE
Cosmos 2151 2.9 20:54:53 10° N 20:59:07 63° E 21:00:57 32° SSE
Cosmos 2251 Rocket 3.6 20:54:33 10° NNW 20:59:55 79° WSW 21:04:02 17° SSE
CZ-4C R/B 2.5 20:57:42 10° S 21:02:32 39° ESE 21:07:57 10° NE
Cosmos 1470 4.2 21:00:30 10° SSW 21:04:14 39° WNW 21:07:59 10° N
SL-08 R/B 4.5 21:04:12 10° S 21:10:34 81° E 21:17:01 10° N
YAOGAN 6 2.7 21:12:14 56° E 21:12:27 58° ENE 21:16:09 10° N
Gblst 52 Del rocket 4.1 21:08:48 10° SW 21:14:41 64° SE 21:17:41 27° ENE
ARGOS 3.7 21:17:29 35° E 21:18:21 37° ENE 21:23:15 10° N
Tsikada Rocket 3.9 21:15:46 10° N 21:22:02 85° E 21:25:55 25° S
CZ-4B DEB 4.5 21:22:20 21° SW 21:23:39 30° W 21:26:25 10° NNW
Coronas F rocket 4.1 21:22:12 10° NNW 21:22:18 11° NNW 21:22:18 11° NNW
USA 267 4.1 21:24:10 23° ENE 21:27:45 41° NNE 21:33:46 10° NW
Cosmos 1842 Rocket 4.3 21:24:07 10° SSW 21:28:25 51° WNW 21:32:43 10° N
Cosmos 389 Rocket 3.2 21:26:45 25° SW 21:28:33 53° WNW 21:32:02 10° N
Envisat 4.1 21:34:27 14° SSW 21:38:26 42° W 21:43:17 10° NNW
ISS -2.3 21:35:43 10° W 21:38:41 33° NNW 21:38:41 33° NNW
ERS-1 Rocket 3.2 21:43:09 42° S 21:44:45 67° WSW 21:49:48 10° NNW
Cosmos 1626 2.9 21:47:20 10° NNW 21:50:16 50° NW 21:50:16 50° NW
SL-08 RB Rocket 4.2 21:56:37 52° NNE 21:56:37 52° NNE 22:00:26 10° N
USA 245 4.3 21:55:15 64° SE 21:56:14 80° ENE 22:02:39 10° N
Sich 1 3.6 21:52:03 10° N 21:55:27 50° NNE 21:55:27 50° NNE
MOS 1-B Rocket 4.4 21:54:59 51° ESE 21:56:39 63° ENE 22:03:13 10° N
Cosmos 2233 Rocket 3.9 21:56:37 38° SSW 21:59:10 84° W 22:05:21 10° N
Cosmos 2297 Rocket 4.4 21:58:06 10° NNE 22:00:21 12° NE 22:01:13 12° NE
MetOp-B 4.2 22:02:00 64° SSW 22:02:41 73° WSW 22:08:04 10° NNW
Cosmos 1666 Rocket 4.3 22:02:32 10° N 22:05:42 48° NNW 22:05:42 48° NNW
Cosmos 1633 Rocket 3.9 22:02:38 10° N 22:05:45 45° N 22:05:45 45° N
H-2A R/B 2.4 22:09:10 56° NE 22:09:10 56° NE 22:13:39 10° N
Cosmos 2221 3.4 22:10:10 45° W 22:10:27 45° WNW 22:14:42 10° N
Cosmos 2369 Rocket 2.7 22:07:12 10° SW 22:12:44 57° WNW 22:18:16 10° NNE
SL-24 R/B - RUBIN 2 4.3 22:08:35 10° NNW 22:14:23 64° NNE 22:14:23 64° NNE
ATLAS 3B R/B 4.2 22:20:37 23° ENE 22:20:37 23° ENE 22:23:15 10° NE
Terra 3.2 22:18:31 30° NNE 22:18:31 30° NNE 22:21:14 10° N
Lacrosse 5 3.9 22:13:12 10° NW 22:17:05 21° N 22:19:04 17° NNE
SPOT 5 3.4 22:20:01 60° WSW 22:20:07 61° WSW 22:25:22 10° NNW
Cosmos 1833 4.2 22:15:35 10° NNW 22:20:53 76° WNW 22:20:53 76° WNW
BREEZE-M DEB (TANK) 4.3 22:18:14 10° W 22:23:25 89° N 22:47:30 10° E
Cosmos 2227 Rocket 3.9 22:23:28 10° N 22:27:14 21° NE 22:27:14 21° NE
H-2A R/B 3.9 22:30:39 25° N 22:30:39 25° N 22:32:25 10° N
Cosmos 1943 Rocket 2.7 22:30:17 54° N 22:30:17 54° N 22:34:38 10° NNE
USA 215 3.1 22:30:18 10° NE 22:36:53 89° NW 22:43:25 10° SW
Cosmos 407 Rocket 4.4 22:39:40 10° NNW 22:43:21 46° NNW 22:43:21 46° NNW
Cosmos 1464 Rocket 4.2 22:51:39 66° NNW 22:51:39 66° NNW 22:57:09 10° N
CZ-4C R/B 3.3 22:45:49 10° WSW 22:50:59 42° NW 22:56:53 10° NNE
CZ-3B DEB 4.0 22:52:51 10° NW 22:55:27 18° NNW 22:55:27 18° NNW
USA 267 3.5 23:11:30 65° NW 23:11:30 65° NW 23:16:58 10° NW
Cosmos 2219 4.3 23:06:31 10° NNW 23:10:07 41° NW 23:10:07 41° NW
Cosmos 2297 Rocket 3.9 23:40:11 10° NNW 23:43:01 29° N 23:43:01 29° N
H-2A R/B 4.4 23:49:48 17° WNW 23:49:48 17° WNW 23:51:59 10° NW
Terra 4.5 23:57:23 15° NW 23:57:23 15° NW 23:58:27 10° NW
